TimeEDT,TemperatureF,Dew PointF,Humidity,Sea Level PressureIn,VisibilityMPH,Wind Direction,Wind SpeedMPH,Gust SpeedMPH,PrecipitationIn,Events,Conditions,WindDirDegrees,DateUTC
12:08 AM,50.0,44.6,82,30.06,10.0,SE,3.5,-,N/A,,Clear,130,2013-03-11 04:08:00
12:18 AM,48.2,46.4,93,30.05,8.0,SE,3.5,-,N/A,,Clear,130,2013-03-11 04:18:00
12:53 AM,48.2,46.4,93,30.05,10.0,SE,2.3,-,N/A,,Clear,130,2013-03-11 04:53:00
12:58 AM,48.2,45.9,92,30.07,9.0,SE,4.6,-,N/A,,Clear,130,2013-03-11 04:58:00
1:13 AM,48.2,44.6,87,30.05,10.0,SE,1.2,-,N/A,,Clear,140,2013-03-11 05:13:00
1:43 AM,46.4,44.6,93,30.05,9.0,SSE,3.5,-,N/A,,Clear,150,2013-03-11 05:43:00
1:58 AM,47.1,45.3,93,30.06,10.0,Calm,Calm,-,N/A,,Clear,0,2013-03-11 05:58:00
2:33 AM,44.6,42.8,93,30.04,9.0,Calm,Calm,-,N/A,,Clear,10,2013-03-11 06:33:00
2:58 AM,43.3,42.8,98,30.04,10.0,SSE,2.3,-,N/A,,Mostly Cloudy,160,2013-03-11 06:58:00
3:58 AM,47.5,46.0,95,30.01,10.0,SE,4.6,-,N/A,,Scattered Clouds,140,2013-03-11 07:58:00
4:58 AM,53.1,50.5,91,29.98,10.0,SE,8.1,-,N/A,,Clear,140,2013-03-11 08:58:00
5:38 AM,51.8,48.2,88,29.99,10.0,West,1.2,-,N/A,,Mostly Cloudy,270,2013-03-11 09:38:00
5:58 AM,51.4,49.6,94,30.00,10.0,Calm,Calm,-,N/A,,Overcast,0,2013-03-11 09:58:00
6:28 AM,51.8,50.0,94,30.00,10.0,Calm,Calm,-,N/A,,Overcast,0,2013-03-11 10:28:00
6:58 AM,51.3,50.0,95,30.01,10.0,Calm,Calm,-,N/A,,Mostly Cloudy,0,2013-03-11 10:58:00
7:58 AM,52.9,50.5,92,30.01,10.0,SSE,9.2,-,N/A,,Mostly Cloudy,150,2013-03-11 11:58:00
8:58 AM,57.2,53.6,88,30.00,10.0,SE,8.1,-,N/A,,Mostly Cloudy,140,2013-03-11 12:58:00
9:58 AM,62.6,54.3,74,30.00,10.0,SSE,15.0,21.9,N/A,,Scattered Clouds,160,2013-03-11 13:58:00
10:58 AM,64.9,54.3,68,29.98,10.0,SSE,13.8,-,N/A,,Mostly Cloudy,150,2013-03-11 14:58:00
11:58 AM,68.0,55.2,64,29.95,10.0,SSE,12.7,21.9,N/A,,Overcast,160,2013-03-11 15:58:00
12:48 PM,68.0,55.4,64,29.91,10.0,SSE,13.8,24.2,N/A,,Mostly Cloudy,160,2013-03-11 16:48:00
12:58 PM,68.7,54.9,61,29.90,10.0,SSE,19.6,24.2,N/A,,Scattered Clouds,160,2013-03-11 16:58:00
1:58 PM,70.7,55.4,58,29.86,10.0,SSE,18.4,25.3,N/A,,Mostly Cloudy,160,2013-03-11 17:58:00
2:18 PM,69.8,55.4,60,29.84,10.0,SSE,13.8,20.7,N/A,,Mostly Cloudy,150,2013-03-11 18:18:00
2:58 PM,70.0,55.6,60,29.86,10.0,SSE,11.5,-,N/A,,Mostly Cloudy,160,2013-03-11 18:58:00
3:15 PM,69.8,55.4,60,29.83,10.0,SSE,10.4,-,N/A,Rain,Light Rain,160,2013-03-11 19:15:00
3:26 PM,69.8,55.4,60,29.81,10.0,SSE,12.7,-,N/A,,Mostly Cloudy,160,2013-03-11 19:26:00
3:46 PM,71.6,55.4,57,29.79,10.0,SSE,11.5,23.0,N/A,,Overcast,150,2013-03-11 19:46:00
3:58 PM,70.7,55.4,58,29.80,10.0,SSE,16.1,27.6,0.00,,Overcast,160,2013-03-11 19:58:00
4:12 PM,69.8,55.4,60,29.79,10.0,SSE,16.1,-,N/A,Rain,Light Rain,160,2013-03-11 20:12:00
4:17 PM,69.8,55.4,60,29.78,10.0,SSE,15.0,23.0,N/A,Rain,Light Rain,150,2013-03-11 20:17:00
4:50 PM,66.2,59.0,78,29.83,2.0,WSW,10.4,20.7,N/A,Rain,Heavy Rain,250,2013-03-11 20:50:00
4:55 PM,62.6,59.0,88,29.83,1.5,West,6.9,-,N/A,Rain,Heavy Rain,260,2013-03-11 20:55:00
4:58 PM,63.1,59.9,89,29.84,1.8,Variable,4.6,-,0.17,Rain,Heavy Rain,0,2013-03-11 20:58:00
5:03 PM,62.6,60.8,94,29.84,4.0,West,8.1,-,N/A,Rain,Rain,270,2013-03-11 21:03:00
5:08 PM,60.8,60.8,100,29.84,4.0,West,9.2,-,N/A,Rain,Heavy Rain,270,2013-03-11 21:08:00
5:28 PM,60.8,60.8,100,29.84,3.0,West,3.5,-,N/A,Rain,Heavy Rain,270,2013-03-11 21:28:00
5:33 PM,60.8,60.8,100,29.83,4.0,Calm,Calm,-,N/A,Rain,Heavy Rain,350,2013-03-11 21:33:00
5:48 PM,60.8,60.8,100,29.83,4.0,WNW,2.3,-,N/A,Rain,Rain,300,2013-03-11 21:48:00
5:58 PM,60.6,60.3,99,29.84,4.0,NW,3.5,-,0.30,Rain,Rain,310,2013-03-11 21:58:00
6:03 PM,60.8,60.8,100,29.82,2.5,NW,3.5,-,N/A,Rain,Rain,320,2013-03-11 22:03:00
6:23 PM,60.8,59.0,94,29.84,1.8,Variable,1.2,-,N/A,Rain,Rain,0,2013-03-11 22:23:00
6:28 PM,60.8,59.0,94,29.83,1.2,Calm,Calm,-,N/A,Rain,Heavy Rain,340,2013-03-11 22:28:00
6:38 PM,60.8,59.0,94,29.83,1.5,Calm,Calm,-,N/A,Rain,Heavy Rain,0,2013-03-11 22:38:00
6:43 PM,60.8,59.0,94,29.83,1.2,Calm,Calm,-,N/A,Rain,Heavy Rain,0,2013-03-11 22:43:00
6:48 PM,60.8,59.0,94,29.83,1.0,Calm,Calm,-,N/A,Rain,Heavy Rain,0,2013-03-11 22:48:00
6:53 PM,60.8,59.0,94,29.82,1.5,East,2.3,-,N/A,Rain,Heavy Rain,80,2013-03-11 22:53:00
6:58 PM,59.9,59.5,99,29.83,1.8,East,3.5,-,0.47,Rain,Heavy Rain,90,2013-03-11 22:58:00
7:03 PM,60.8,59.0,94,29.82,3.0,East,2.3,-,N/A,Rain,Heavy Rain,90,2013-03-11 23:03:00
7:58 PM,59.7,59.4,99,29.82,9.0,South,3.5,-,0.31,Rain,Light Rain,170,2013-03-11 23:58:00
8:03 PM,59.0,59.0,100,29.81,9.0,South,3.5,-,N/A,Rain,Light Rain,180,2013-03-12 00:03:00
8:08 PM,59.0,59.0,100,29.82,7.0,South,3.5,-,N/A,Rain,Light Rain,190,2013-03-12 00:08:00
8:28 PM,59.0,59.0,100,29.82,10.0,WSW,3.5,-,N/A,Rain,Light Rain,250,2013-03-12 00:28:00
8:38 PM,59.0,59.0,100,29.82,7.0,WSW,5.8,-,N/A,Rain,Rain,250,2013-03-12 00:38:00
8:43 PM,59.0,59.0,100,29.83,6.0,West,5.8,-,N/A,Rain,Light Rain,270,2013-03-12 00:43:00
8:48 PM,59.0,59.0,100,29.82,5.0,West,4.6,-,N/A,Rain,Light Rain,260,2013-03-12 00:48:00
8:58 PM,59.7,59.4,99,29.83,5.0,WSW,5.8,-,0.06,,Light Drizzle,250,2013-03-12 00:58:00
9:03 PM,59.0,59.0,100,29.82,6.0,West,9.2,-,N/A,Rain,Light Rain,280,2013-03-12 01:03:00
9:08 PM,59.0,59.0,100,29.82,8.0,WNW,9.2,-,N/A,Rain,Light Rain,290,2013-03-12 01:08:00
9:13 PM,59.0,57.2,94,29.83,10.0,WNW,10.4,-,N/A,Rain,Rain,290,2013-03-12 01:13:00
9:28 PM,57.2,57.2,100,29.83,10.0,WNW,11.5,-,N/A,Rain,Light Rain,290,2013-03-12 01:28:00
9:43 PM,57.2,55.4,94,29.85,10.0,West,9.2,-,N/A,Rain,Light Rain,280,2013-03-12 01:43:00
9:58 PM,56.3,56.1,99,29.85,10.0,WNW,6.9,-,0.06,Rain,Light Rain,300,2013-03-12 01:58:00
10:08 PM,55.4,55.4,100,29.85,10.0,WNW,6.9,-,N/A,Rain,Light Rain,300,2013-03-12 02:08:00
10:13 PM,55.4,55.4,100,29.85,10.0,NW,6.9,-,N/A,,Light Drizzle,310,2013-03-12 02:13:00
10:38 PM,55.4,55.4,100,29.85,9.0,WNW,8.1,-,N/A,Rain,Light Rain,290,2013-03-12 02:38:00
10:53 PM,55.4,53.6,94,29.85,6.0,WNW,9.2,-,N/A,Rain,Light Rain,290,2013-03-12 02:53:00
10:58 PM,54.7,54.5,99,29.86,6.0,WNW,8.1,-,0.01,Rain,Light Rain,300,2013-03-12 02:58:00
11:58 PM,52.5,52.2,99,29.88,9.0,WNW,11.5,-,0.01,Rain,Light Rain,290,2013-03-12 03:58:00